Regional Weather Roundup
Issued by NWS Goodland, KS

Home | Current Version | Previous Version | Graphics & Text | Print | Product List | Glossary On
Versions: 1 2 3 4 5 6 7 8 9 10 11 12 13 14 15 16 17 18 19 20 21 22 23 24 25 26 27 28 29 30 31 32 33 34 35 36 37 38 39 40 41 42 43 44 45 46 47 48 49 50
000
ASUS43 KGLD 190508
RWRGLD

GOODLAND FORECAST AREA HOURLY WEATHER ROUNDUP
NATIONAL WEATHER SERVICE GOODLAND KS
1000 PM MST WED JAN 18 2017

...OFFICIAL OBSERVATIONS...

CITY           SKY/WX    TMP DP  RH WIND       PRES   REMARKS
GOODLAND KS    CLOUDY    36  29  75 S9        29.71F
HILL CITY KS   CLOUDY    40  39  97 S7        29.78F
IMPERIAL NEB   CLOUDY    29  25  85 SE6       29.72F
MCCOOK NEB     FOG       31  31 100 SE6       29.75F VSB 1/2
AKRON CO       CLOUDY    29  17  61 W8        29.68F
BURLINGTON CO  CLOUDY    30  27  88 SW8       29.71F
LIMON CO       CLOUDY    19  16  88 NW5       29.70F
$$

...UNOFFICIAL OBSERVATIONS...

CITY           SKY/WX    TMP DP  RH WIND       PRES   REMARKS
LENORA KS        N/A     38  32  79 S8          N/A
SHARON SPRINGS   N/A     31  29  90 W7          N/A
TRENTON NEB      N/A     33  32  96 CALM        N/A
KIT CARSON CO    N/A     26  23  89 CALM        N/A
YUMA CO        FAIR      18  14  86 SW3       29.69F
$$




USA.gov is the U.S. government's official web portal to all federal, state and local government web resources and services.